{"data":{"norad_id":64263,"intl_designator":"2025-120H","name":"STARLINK-34276","alt_names":[],"object_type":"PAYLOAD","status":"ACTIVE","operator":null,"country":"US","launch_date":"2025-06-04","launch_site_code":"AFWTR","launch_vehicle":null,"mission":null,"orbit_class":"UNKNOWN","rcs_meters":null,"size_class":null,"mass_kg":null,"dimensions":null,"purposes":["comms"],"wikipedia_slug":null,"has_3d_model":false,"image_url":null,"decayed_at":null,"tle_current":{"epoch":"2026-09-20T13:53:29.240160Z","epoch_age_seconds":130765,"freshness":"FRESH","line1":"1 64263U 25120H   26263.57881065  .00012046  00000+0  39913-3 0  9990","line2":"2 64263  53.1614 290.1020 0001095  87.3870 272.7257 15.31714323 73771","mean_motion":15.31714323,"eccentricity":0.0001095,"inclination_deg":53.1614,"raan_deg":290.102,"arg_perigee_deg":87.387,"mean_anomaly_deg":272.7257,"bstar":0.00039913,"rev_number":7377,"period_min":94.01230884749,"perigee_km":469.94735208488,"apogee_km":471.44724679645,"semimajor_km":6848.8342994407,"source":"CELESTRAK","updated_at":"2026-09-21T09:00:35.282800Z"}}}